Starlink 34549

operational
NORAD ID: 65017 Int'l Des: 2025-161 Owner: SPXS Country: US Constellation: starlink
LEOCIRCULAR

关于 Starlink 34549

正在加载描述...

实时位置

正在加载3D地球...

即将过境

高度历史

Altitude vs Time

uPlot chart will show altitude changes over time

两行轨道根数

1 65017U 25161C 25340.93642249 .00040294 00000-0 13645-2 0 9997
2 65017 53.1602 4.6957 0002349 91.4576 268.6694 15.30216566 21244
Epoch: Dec 6, 2025 • Age: 19 hours

当前状态

高度 479.2 km
速度 7.63 km/s
星下点 49.70°N, 81.76°E
发射日期 Jul 30, 2025
运行时间 0.3 years
类型 internet

技术详情

分类 Payload
质量 575.00 kg
干质量 530.00 kg
总质量 575.00 kg
长度 0.30 m
直径 4.10 m
跨度 29.00 m
形状 Box + pan
制造商 SPXS
平台类型 Starlink V2MO
阶段状态 In Orbit
所有者/国家 SPXS/US

大型星座

Loading constellations...